sat.trackr.live / text

‹ back to catalog

STARLINK-31176

NORAD 58745 · 2024-005T

PAYLOAD ACTIVE UNKNOWN

§ Identity

Operator
Country
US
Launch date
2024-01-07
Launch site
AFETR
Launch vehicle
Mass (kg)
RCS (m²)

Purposes: comms

External: N2YO · Heavens-Above · Gunter

§ Orbital elements

Epoch: 2026-05-25T00:01:26.941728Z

Period
94.27 min
Inclination
43.0046°
Eccentricity
0.0001694
Mean motion
15.27577689 rev/d
Perigee alt
481.9 km
Apogee alt
484.2 km
Semi-major
6,861.2 km
B*
1.3157e-4
RAAN
148.8684°
Arg perigee
283.3658°
Mean anomaly
76.7004°
Rev number
13,215

§ Raw data

STARLINK-311761 58745U 24005T   26145.00100627  .00003360  00000+0  13157-3 0  99952 58745  43.0046 148.8684 0001694 283.3658  76.7004 15.27577689132155

JSON: /api/v1/satellites/58745 · /tle

For live sub-satellite position, see the globe view (requires WebGL).

§ Visibility from observer

Set your observer location to see the next 7 days of passes ≥ 10°. The values pass through the URL so the page stays shareable.

No JS? Fill the form by hand. The geolocation button needs JavaScript.